Location: Anumalkud?ru
(16.4847°N, 80.6636°E)
Time: 10:16:25
(UTC+00:00)

Nadezhda 1 Rocket - Pass Details

Date: 11 April 2026
Orbit: 939 x 1005 km, 83.0° (Epoch: 12 May)

Event Time Altitude Azimuth Distance (km) Brightness Sun altitude
Rises 13:03:07 0° 357° (N) 3,602 7.2 -3.5°
Reaches altitude 10° 13:05:37 10° 358° (N) 2,653 6.5 -4.1°
Maximum altitude 13:11:40 84° 85° (E) 946 4.0 -5.5°
Drops below altitude 10° 13:17:42 10° 175° (S) 2,649 6.1 -6.9°
Sets 13:20:11 0° 175° (S) 3,596 6.8 -7.5°
